Wind_Speed
5 4 5 6 7 6 6 5 4 4 4 4 4 5 5 6 7 8 8 9 10 11 12 12 12 11 10 9 8 8 7 7 7 7 7 7 6 6 6 6 6 6 6
6 5 5 6 7 7 7 6 6 6 5 5 6 6 6 7 7 8 9 9 10 11 11 11 11 11 9 8 8 7 7 7 7 7 7 7 6 7 6 6 6 6 6
7 6 6 7 8 8 8 8 7 7 7 7 8 8 8 9 9 9 10 10 10 11 11 11 10 9 8 8 7 6 6 7 7 7 7 6 6 7 7 7 7 7 6
7 8 8 9 9 9 9 9 9 9 9 9 9 9 10 10 11 11 11 11 11 10 10 9 9 8 7 6 6 5 5 6 6 6 6 6 6 6 7 7 7 7 7
8 8 9 10 11 11 10 11 11 11 11 11 11 11 12 12 12 12 11 11 10 10 9 8 7 7 6 5 5 5 5 5 6 6 6 6 6 7 7 7 7 8 8
9 8 9 10 11 12 12 12 12 12 13 13 13 13 13 13 13 12 12 11 10 9 8 7 6 6 6 5 5 4 4 4 5 6 6 6 7 7 7 7 7 8 8
10 9 10 10 12 12 13 13 14 14 14 14 14 14 15 14 13 13 12 11 10 9 8 7 6 6 5 5 4 4 4 4 5 5 6 7 7 7 7 8 8 8 9
11 11 11 11 12 12 13 14 15 15 15 15 15 15 15 15 14 13 12 12 11 10 9 8 7 6 5 5 5 5 5 5 5 5 6 7 7 7 7 8 9 9 9
11 11 11 12 12 12 13 14 15 15 15 15 15 15 15 15 14 13 13 12 11 10 9 8 8 7 6 6 5 5 5 5 5 6 6 7 7 7 8 9 9 9 9
13 12 11 11 12 12 12 13 14 15 15 16 16 16 15 15 14 14 13 13 12 11 10 9 8 8 7 7 7 7 7 7 7 7 7 7 8 8 9 9 10 10 10
14 14 12 11 12 12 13 14 15 15 15 16 16 16 15 15 15 14 14 13 13 12 11 10 9 9 8 8 8 8 8 9 9 9 9 9 9 10 10 11 11 12 12
15 13 12 11 12 13 14 15 15 16 16 16 17 17 16 16 16 15 15 14 14 13 13 12 11 11 10 10 9 10 10 10 11 11 11 12 12 12 13 13 13 14 14
15 14 13 12 13 14 15 16 17 17 17 17 18 18 17 17 17 17 16 16 15 15 14 14 13 13 13 12 12 12 12 12 13 13 14 14 15 15 15 16 16 16 16
15 16 15 14 14 15 17 17 18 18 19 18 19 19 18 18 19 18 18 18 17 16 16 16 16 15 15 14 14 14 14 14 14 15 16 17 17 18 18 19 19 20 20
15 15 16 16 16 17 18 18 18 19 19 19 19 19 20 20 20 20 19 19 18 17 17 17 17 17 17 16 16 16 16 16 16 17 18 18 19 20 20 21 22 22 22
17 16 16 16 18 19 20 21 20 21 21 21 21 21 21 21 21 21 21 20 20 19 18 18 18 18 19 18 18 18 19 19 20 20 21 21 22 22 22 22 23 23 23
19 17 17 17 18 21 23 22 22 23 23 23 23 23 23 22 22 23 22 22 22 21 20 20 20 20 21 21 21 21 22 22 23 23 24 24 24 24 24 24 25 25 25
21 19 18 17 17 20 22 23 24 25 25 25 25 24 23 23 23 23 23 23 24 23 22 22 21 21 22 23 24 24 24 25 26 26 26 27 27 26 26 26 27 27 27
23 21 20 20 20 20 22 24 25 25 25 26 26 25 25 25 24 24 25 25 25 25 25 23 23 23 24 25 25 26 26 27 27 27 28 28 29 28 29 29 28 28 29
25 24 23 21 21 22 22 24 25 25 25 26 27 26 26 26 25 25 26 25 26 26 26 25 25 26 27 27 28 28 28 28 28 29 29 29 30 31 31 31 31 31 31
27 26 26 24 21 22 23 24 25 26 25 27 27 27 27 26 26 25 25 24 25 25 26 27 28 28 28 29 31 31 31 31 30 31 31 31 31 32 33 33 33 34 34
27 27 27 27 24 23 24 25 25 24 23 26 26 27 27 26 25 25 24 24 24 24 25 26 28 29 30 31 31 32 32 32 33 33 33 34 35 35 35 35 36 36 37
28 27 27 26 24 25 26 26 25 24 23 25 25 26 27 26 25 26 26 26 25 26 26 26 27 28 29 30 32 33 34 34 34 35 36 37 38 39 39 39 40 40 40
28 27 26 24 24 25 25 25 24 24 23 24 25 26 27 27 26 26 27 25 25 26 26 27 27 28 29 30 32 33 33 34 35 36 37 38 39 41 41 42 43 44 44
27 26 26 24 23 24 23 24 23 23 23 23 24 25 26 25 25 25 25 25 26 26 26 27 28 29 30 31 32 32 33 35 37 38 39 40 42 43 44 45 46 47 48
27 25 24 24 24 24 25 24 22 22 23 23 23 23 23 23 24 25 25 26 28 28 28 29 30 31 32 33 33 34 36 37 39 41 42 43 45 46 48 49 50 50 50
Wind_Direction
192 207 237 237 237 240 240 236 236 240 247 257 268 283 294 303 309 311 314 318 320 321 320 320 319 319 319 320 322 321 321 323 322 322 325 329 331 329 324 319 309 300 293
194 209 230 237 240 243 247 250 250 251 255 261 267 274 284 289 294 299 304 309 313 315 315 316 315 317 318 321 324 324 325 326 324 324 328 330 329 326 321 316 307 299 293
192 206 226 236 241 246 248 252 257 257 259 265 270 274 279 283 287 292 297 302 306 309 311 312 312 315 317 320 321 324 326 325 323 325 325 326 326 322 318 315 309 302 297
199 215 227 238 243 246 250 252 256 259 261 264 268 272 275 279 282 287 291 296 300 304 306 307 308 310 313 314 315 319 323 324 324 324 324 323 321 319 316 315 311 308 306
203 214 225 237 242 244 249 253 256 259 261 263 265 268 271 275 279 283 287 291 295 298 300 299 299 302 306 307 310 314 320 320 321 321 320 315 316 317 316 316 316 314 311
208 216 229 240 245 247 249 253 255 257 259 261 262 264 267 272 276 279 283 285 287 290 291 288 287 292 297 300 300 304 310 310 312 312 310 306 307 311 314 317 321 322 317
212 222 235 242 246 249 250 251 252 254 256 257 258 261 264 268 271 274 277 278 280 282 280 276 276 282 284 281 281 285 289 294 303 309 311 308 307 309 314 318 325 325 321
221 226 236 241 247 250 252 251 252 252 253 253 254 256 259 262 265 268 270 271 273 272 269 265 268 269 266 263 267 274 278 288 301 311 316 315 313 311 312 316 320 323 321
225 227 235 239 245 251 253 251 251 251 250 250 250 252 254 257 260 262 264 265 266 265 261 258 259 257 254 253 258 267 275 282 291 299 306 309 311 307 306 309 313 316 317
228 227 232 241 244 249 252 251 248 248 248 247 248 249 250 252 254 256 257 258 258 257 254 253 252 249 246 247 255 265 272 278 285 292 297 300 300 298 299 301 303 306 309
231 229 230 239 246 248 249 249 248 246 246 245 245 246 247 248 248 250 251 249 248 248 247 246 244 243 242 245 253 263 271 275 281 285 288 291 292 291 292 291 293 296 298
236 234 235 242 247 249 250 249 248 245 243 242 242 243 243 243 244 245 245 242 240 241 241 241 241 241 241 244 249 258 264 270 277 280 282 282 283 285 284 284 285 288 290
243 244 244 250 255 253 251 248 246 244 243 240 241 241 240 240 241 241 240 237 236 238 240 240 240 241 241 243 247 254 260 268 274 278 280 280 280 280 280 279 280 281 282
252 248 248 252 258 254 251 247 246 244 242 238 238 238 239 239 238 238 237 235 235 238 240 241 241 241 244 246 251 257 263 271 275 278 281 282 282 281 280 279 278 277 278
257 255 252 253 255 252 249 249 249 246 243 241 238 238 238 237 236 235 235 235 235 238 240 244 244 244 247 251 257 261 266 272 276 279 281 283 284 283 281 280 280 279 279
264 255 253 253 255 255 253 251 247 246 242 240 236 236 237 236 236 235 235 235 238 240 242 245 246 249 253 257 261 264 268 272 275 279 280 283 284 283 281 281 280 279 280
267 258 250 254 256 256 256 253 247 242 240 239 236 236 236 237 238 238 237 238 240 241 243 246 248 254 258 261 265 268 271 273 276 279 280 282 284 281 280 280 280 278 277
268 268 262 259 264 259 255 254 247 240 239 239 239 238 238 239 240 240 239 241 242 242 244 247 251 257 261 265 267 270 272 274 276 278 279 281 281 280 279 280 279 276 274
267 272 273 270 272 271 265 259 251 245 241 240 239 238 237 238 239 239 241 243 244 245 247 249 254 259 264 267 269 271 274 274 275 276 276 278 278 277 278 279 278 276 275
266 271 277 275 273 273 269 261 254 249 245 241 240 238 235 237 240 242 243 246 247 248 249 251 256 259 264 267 270 272 273 273 274 274 274 276 277 276 276 277 277 277 276
263 269 272 274 273 271 269 263 256 252 246 240 239 236 237 237 240 245 244 247 249 252 254 257 259 261 264 267 268 270 271 272 273 273 273 275 277 276 275 276 277 277 276
261 267 271 275 271 272 269 261 255 251 244 240 240 238 237 238 241 243 248 252 255 258 261 263 266 266 269 271 271 270 271 273 272 272 273 274 275 275 275 276 277 276 276
260 264 269 270 268 270 271 266 259 250 245 245 244 242 243 245 245 248 254 255 259 263 268 271 272 271 273 274 273 273 272 273 272 272 274 274 275 276 276 276 277 277 277
258 261 265 265 265 268 269 265 264 256 251 247 245 246 249 249 249 253 255 258 263 265 270 273 274 273 274 275 274 274 274 274 272 272 272 274 275 276 277 277 278 279 279
255 259 263 263 266 269 274 272 264 260 257 254 251 253 252 251 255 258 259 264 268 271 273 274 275 273 275 276 276 276 276 275 274 274 274 275 276 277 277 277 278 279 279
253 256 258 260 264 269 274 273 267 265 263 260 261 262 257 258 261 264 266 268 272 274 276 276 277 276 277 277 277 277 277 277 276 276 276 277 277 277 277 278 279 279 279
Height
5885 5887 5888 5889 5890 5891 5892 5893 5894 5896 5897 5898 5899 5900 5901 5901 5902 5902 5902 5903 5902 5902 5902 5901 5901 5900 5900 5899 5899 5898 5898 5898 5897 5897 5897 5897 5896 5896 5895 5895 5895 5895 5894
5884 5885 5887 5888 5889 5890 5891 5892 5893 5894 5895 5897 5898 5898 5899 5900 5900 5901 5901 5901 5901 5901 5901 5900 5900 5899 5899 5898 5898 5897 5897 5897 5897 5897 5896 5896 5896 5895 5895 5895 5894 5894 5894
5882 5884 5885 5887 5888 5889 5889 5890 5891 5892 5893 5895 5896 5897 5897 5898 5899 5899 5900 5900 5900 5900 5900 5899 5898 5898 5898 5897 5897 5897 5897 5897 5896 5896 5896 5895 5895 5895 5894 5894 5894 5893 5893
5880 5882 5883 5885 5886 5887 5887 5888 5889 5890 5891 5892 5893 5894 5895 5896 5897 5897 5898 5898 5898 5898 5898 5898 5897 5897 5897 5897 5896 5896 5896 5896 5896 5895 5895 5895 5894 5894 5893 5893 5893 5892 5892
5878 5879 5881 5882 5883 5884 5885 5886 5886 5887 5889 5890 5891 5892 5893 5893 5894 5895 5895 5895 5896 5896 5896 5896 5896 5896 5895 5895 5895 5895 5896 5895 5895 5895 5894 5894 5894 5893 5893 5892 5891 5891 5890
5875 5876 5878 5879 5881 5881 5882 5883 5884 5885 5886 5887 5888 5889 5890 5891 5891 5892 5892 5893 5893 5894 5894 5894 5894 5894 5894 5895 5894 5894 5895 5894 5894 5894 5893 5893 5893 5892 5892 5891 5890 5890 5889
5873 5874 5875 5876 5878 5879 5879 5880 5881 5882 5883 5884 5885 5886 5887 5888 5889 5889 5890 5890 5891 5891 5892 5892 5893 5893 5893 5893 5893 5893 5893 5893 5893 5893 5892 5892 5891 5891 5890 5890 5889 5888 5888
5870 5871 5872 5873 5874 5875 5876 5877 5878 5879 5880 5881 5882 5883 5884 5885 5886 5887 5887 5888 5888 5889 5890 5890 5891 5891 5892 5892 5892 5892 5892 5892 5891 5891 5891 5890 5890 5889 5889 5888 5888 5887 5887
5867 5868 5869 5870 5871 5872 5873 5874 5875 5876 5877 5878 5879 5880 5881 5883 5884 5885 5885 5886 5886 5887 5887 5888 5889 5889 5890 5890 5890 5890 5890 5890 5890 5889 5889 5889 5888 5888 5887 5887 5886 5886 5885
5864 5864 5865 5866 5867 5868 5870 5871 5871 5872 5874 5875 5876 5877 5879 5880 5881 5882 5883 5883 5884 5885 5885 5886 5887 5887 5888 5888 5888 5888 5888 5888 5888 5888 5887 5887 5886 5886 5885 5885 5885 5884 5883
5861 5862 5862 5863 5864 5865 5866 5867 5868 5869 5871 5872 5873 5875 5876 5877 5878 5879 5880 5881 5881 5882 5883 5884 5884 5885 5886 5886 5886 5886 5886 5886 5886 5886 5885 5885 5884 5884 5883 5883 5883 5882 5882
5858 5858 5859 5860 5861 5862 5863 5864 5865 5866 5867 5868 5870 5871 5872 5874 5875 5876 5877 5878 5878 5879 5880 5881 5882 5883 5883 5884 5884 5884 5884 5883 5883 5883 5883 5882 5882 5881 5881 5880 5880 5879 5879
5855 5855 5855 5856 5857 5858 5859 5860 5861 5862 5864 5865 5866 5867 5869 5870 5871 5872 5874 5874 5875 5876 5877 5878 5879 5880 5880 5881 5881 5881 5881 5881 5880 5880 5879 5879 5878 5878 5877 5877 5876 5876 5875
5851 5851 5851 5852 5853 5854 5855 5857 5858 5858 5859 5860 5862 5863 5865 5866 5868 5869 5870 5871 5872 5873 5874 5874 5875 5876 5877 5878 5878 5878 5878 5878 5877 5876 5876 5875 5874 5874 5873 5873 5872 5872 5871
5847 5847 5847 5848 5849 5850 5851 5853 5854 5855 5855 5856 5858 5859 5860 5862 5863 5865 5866 5867 5868 5869 5870 5870 5871 5872 5873 5874 5874 5874 5874 5874 5873 5872 5872 5871 5870 5869 5869 5868 5867 5867 5866
5842 5842 5843 5844 5845 5846 5847 5848 5849 5851 5852 5853 5854 5855 5857 5858 5859 5861 5862 5863 5864 5865 5866 5867 5867 5868 5869 5869 5870 5870 5870 5869 5868 5868 5867 5866 5865 5864 5863 5863 5862 5862 5861
5837 5837 5838 5839 5841 5842 5842 5843 5844 5845 5847 5849 5850 5851 5852 5854 5855 5857 5858 5859 5860 5861 5862 5862 5863 5864 5864 5864 5865 5865 5864 5864 5863 5862 5861 5860 5859 5858 5858 5857 5856 5856 5855
5833 5833 5834 5835 5836 5836 5836 5837 5839 5840 5842 5844 5845 5846 5848 5849 5851 5852 5853 5854 5855 5856 5857 5858 5858 5859 5859 5859 5859 5859 5859 5858 5857 5856 5855 5854 5854 5853 5852 5851 5850 5849 5849
5829 5830 5831 5831 5831 5831 5831 5833 5834 5836 5838 5839 5840 5842 5843 5844 5846 5847 5848 5849 5850 5851 5851 5852 5853 5853 5853 5853 5853 5853 5853 5852 5851 5850 5849 5848 5847 5846 5845 5844 5843 5843 5842
5824 5825 5826 5826 5826 5826 5825 5826 5829 5830 5832 5833 5835 5836 5837 5839 5840 5842 5843 5843 5844 5845 5846 5846 5847 5847 5847 5847 5847 5846 5846 5846 5845 5844 5843 5842 5841 5840 5839 5838 5837 5836 5835
5819 5820 5820 5820 5821 5821 5821 5821 5822 5824 5826 5827 5829 5830 5832 5833 5835 5836 5837 5838 5839 5839 5840 5840 5841 5841 5841 5840 5840 5839 5839 5838 5838 5837 5836 5835 5834 5832 5831 5830 5829 5829 5827
5814 5814 5815 5815 5816 5817 5816 5816 5816 5817 5819 5821 5823 5825 5826 5828 5829 5831 5831 5832 5833 5834 5834 5834 5835 5834 5834 5834 5833 5832 5832 5832 5830 5829 5828 5827 5826 5825 5823 5822 5821 5820 5819
5808 5809 5810 5809 5810 5811 5811 5810 5810 5811 5813 5815 5817 5819 5821 5823 5824 5825 5825 5826 5827 5828 5828 5828 5827 5827 5827 5826 5826 5825 5824 5823 5822 5821 5820 5819 5817 5816 5815 5814 5812 5810 5809
5802 5803 5804 5804 5805 5805 5805 5804 5804 5805 5807 5809 5811 5813 5815 5816 5817 5818 5819 5820 5821 5821 5821 5821 5820 5820 5819 5819 5818 5817 5816 5814 5814 5813 5812 5810 5808 5807 5805 5804 5802 5800 5798
5796 5798 5799 5799 5799 5799 5799 5799 5799 5800 5802 5804 5805 5807 5809 5810 5811 5812 5812 5813 5814 5814 5814 5813 5813 5812 5812 5811 5810 5809 5807 5806 5805 5803 5802 5801 5799 5797 5795 5793 5791 5789 5787
5790 5792 5793 5793 5794 5794 5795 5795 5795 5796 5797 5799 5800 5801 5802 5803 5804 5805 5805 5806 5806 5806 5806 5806 5806 5805 5804 5803 5802 5800 5799 5797 5795 5793 5791 5790 5788 5786 5784 5781 5779 5777 5774